Regional Weather Roundup
Issued by NWS State College, PA

Home | Current Version | Previous Version | Text Only | Print | Product List | Glossary On
Versions: 1 2 3 4 5 6 7 8 9 10 11 12 13 14 15 16 17 18 19 20 21 22 23 24 25 26 27 28 29 30 31 32 33 34 35 36 37 38 39 40 41 42 43 44 45 46 47 48 49 50
000
ASUS41 KCTP 191403
RWRCTP
NATIONAL WEATHER SERVICE STATE COLLEGE PA
1000 AM EDT TUE SEP 19 2017

Note: "fair" indicates few or no clouds below 12,000 feet with no
significant weather and/or obstructions to visibility.

* = STATION THAT DOES NOT REPORT PRECIPITATION /E.G. RAIN...SNOW...ETC/
    THUNDER OR FOG.

PAZ002>004-007>009-013>016-020>023-029>032-191500-
WESTERN PENNSYLVANIA

CITY           SKY/WX    TMP DP  RH WIND       PRES   REMARKS
ERIE           MOSUNNY   71  64  78 S13       30.02S
MEADVILLE      MOSUNNY   69  64  84 CALM      30.06S
FRANKLIN*      MOSUNNY   66  63  90 SE9       30.09S
NEW CASTLE     FAIR      71  65  81 VRB6      30.06S
BEAVER COUNTY  SUNNY     70  63  78 SE8       30.06
BUTLER*        SUNNY     68  64  87 E7        30.08R
PITTSBURGH INT PTSUNNY   70  65  84 E9        30.06R
PITTSBURGH     SUNNY     68  61  78 SE7       30.06R
INDIANA*       SUNNY     68  63  83 VRB6      30.11R
LATROBE        SUNNY     70  63  78 CALM      30.07S
WASHINGTON CO* SUNNY     68  64  88 E3        30.06S
$$

PAZ004>006-010>012-017>019-024>028-033>037-041-042-045-046-049>053-191500-
CENTRAL PENNSYLVANIA

CITY           SKY/WX    TMP DP  RH WIND       PRES   REMARKS
BRADFORD       CLOUDY    65  60  84 VRB5      30.12S
DUBOIS         MOSUNNY   67  59  75 SE9       30.09S
CLEARFIELD     MOSUNNY   68  62  81 VRB5      30.10S
JOHNSTOWN      MOSUNNY   66  59  78 S6        30.11R
ALTOONA        PTSUNNY   67  62  84 CALM      30.09S
STATE COLLEGE  CLOUDY    64  63  94 CALM      30.10R FOG
WILLIAMSPORT   CLOUDY    70  63  78 CALM      30.06F
SELINSGROVE    CLOUDY    68  66  93 CALM      30.08R
FT INDIANTOWN  CLOUDY    69  67  93 NE6       30.04S
CAPITAL CITY   CLOUDY    71  63  75 NW6       30.04S
HARRISBURG     CLOUDY    71  66  84 N7        30.04R
YORK           CLOUDY    70  67  90 N7        30.04R
$$

PAZ038>040-043-044-047-048-054-055-060>062-067>071-191500-
EASTERN PENNSYLVANIA

CITY           SKY/WX    TMP DP  RH WIND       PRES   REMARKS
SCRANTON       CLOUDY    69  63  81 NE8       30.09R
MOUNT POCONO   CLOUDY    64  63  96 NE9       30.10S
ALLENTOWN      MOSUNNY   74  65  73 NE13      30.03F
QUAKERTOWN*    CLOUDY    70  66  88 NE7       30.04S
READING        CLOUDY    70  67  90 NE10G20   30.02F
LANCASTER      CLOUDY    71  68  90 NE14      30.03S
COATESVILLE    PTSUNNY   70  66  88 N10       30.03S
POTTSTOWN      CLOUDY    70  67  90 NE8       30.03S
BLUE BELL      CLOUDY    70  66  88 N8        30.02S
DOYLESTOWN     CLOUDY    74  67  78 N9G17     30.01S
WILLOW GROVE   NOT AVBL
NORTH PHILA    MOSUNNY   76  67  73 NE17G24   30.00S
PHILADELPHIA   PTSUNNY   74  66  76 NE15G25   29.98S
$$



USA.gov is the U.S. government's official web portal to all federal, state and local government web resources and services.